QPF
0.01 0.03 0.09 0.14 0.13 0.11 0.05 0.02 0.01 0.00 0.00 0.00 0.00 0.00 0.01 0.01 0.03 0.04 0.11 0.13 0.07 0.06 0.08 0.08 0.11 0.13 0.13 0.10 0.10 0.09 0.08 0.07 0.04 0.03 0.02 0.02 0.02 0.02 0.02 0.02 0.03 0.03 0.03 0.04 0.04 0.03 0.03 0.04 0.03
0.03 0.09 0.18 0.16 0.12 0.04 0.02 0.02 0.01 0.00 0.00 0.00 0.00 0.00 0.00 0.00 0.02 0.06 0.13 0.11 0.06 0.04 0.05 0.05 0.06 0.08 0.09 0.09 0.08 0.06 0.05 0.04 0.03 0.03 0.02 0.02 0.02 0.02 0.01 0.02 0.02 0.04 0.04 0.04 0.05 0.03 0.04 0.04 0.04
0.07 0.11 0.15 0.17 0.06 0.01 0.01 0.01 0.01 0.00 0.00 0.00 0.00 0.01 0.01 0.01 0.03 0.07 0.10 0.08 0.05 0.04 0.04 0.06 0.06 0.07 0.07 0.07 0.08 0.06 0.04 0.03 0.03 0.03 0.02 0.02 0.01 0.02 0.02 0.02 0.03 0.04 0.04 0.04 0.04 0.03 0.04 0.05 0.04
0.11 0.11 0.12 0.10 0.02 0.01 0.01 0.01 0.00 0.00 0.01 0.01 0.01 0.00 0.01 0.03 0.04 0.05 0.06 0.05 0.04 0.04 0.04 0.06 0.06 0.06 0.06 0.07 0.06 0.03 0.02 0.02 0.02 0.02 0.02 0.01 0.01 0.02 0.02 0.03 0.03 0.04 0.05 0.05 0.05 0.05 0.04 0.05 0.04
0.10 0.10 0.12 0.05 0.01 0.01 0.00 0.00 0.00 0.01 0.01 0.01 0.00 0.01 0.03 0.04 0.04 0.05 0.06 0.04 0.05 0.05 0.03 0.04 0.04 0.04 0.04 0.03 0.02 0.02 0.02 0.03 0.02 0.02 0.02 0.02 0.02 0.02 0.02 0.04 0.04 0.06 0.08 0.09 0.09 0.07 0.07 0.06 0.05
0.12 0.10 0.08 0.03 0.01 0.01 0.00 0.00 0.00 0.00 0.00 0.00 0.01 0.02 0.04 0.04 0.03 0.04 0.08 0.07 0.04 0.03 0.02 0.03 0.03 0.03 0.03 0.02 0.02 0.02 0.02 0.03 0.03 0.03 0.02 0.02 0.02 0.02 0.05 0.05 0.05 0.07 0.13 0.16 0.13 0.10 0.10 0.07 0.06
0.11 0.09 0.07 0.02 0.01 0.01 0.01 0.01 0.01 0.00 0.00 0.01 0.01 0.02 0.05 0.05 0.04 0.04 0.05 0.05 0.04 0.02 0.02 0.02 0.02 0.02 0.02 0.01 0.01 0.02 0.02 0.03 0.03 0.02 0.02 0.02 0.03 0.06 0.11 0.13 0.13 0.12 0.14 0.12 0.12 0.11 0.09 0.07 0.04
0.08 0.07 0.06 0.03 0.00 0.01 0.01 0.00 0.00 0.00 0.00 0.01 0.01 0.02 0.04 0.04 0.03 0.03 0.04 0.03 0.02 0.02 0.04 0.03 0.01 0.01 0.01 0.01 0.02 0.02 0.03 0.02 0.02 0.03 0.03 0.02 0.02 0.05 0.10 0.13 0.14 0.12 0.10 0.10 0.10 0.08 0.07 0.05 0.03
0.06 0.07 0.05 0.02 0.00 0.01 0.01 0.00 0.00 0.00 0.00 0.00 0.01 0.02 0.03 0.03 0.03 0.03 0.04 0.02 0.02 0.03 0.04 0.02 0.01 0.01 0.01 0.01 0.02 0.02 0.03 0.02 0.01 0.03 0.04 0.03 0.02 0.02 0.04 0.06 0.08 0.07 0.07 0.08 0.08 0.06 0.05 0.04 0.03
0.04 0.04 0.02 0.01 0.00 0.01 0.01 0.00 0.00 0.00 0.00 0.00 0.01 0.02 0.03 0.04 0.04 0.03 0.02 0.02 0.04 0.03 0.02 0.02 0.02 0.01 0.01 0.01 0.01 0.01 0.01 0.01 0.01 0.01 0.02 0.03 0.03 0.02 0.02 0.04 0.05 0.05 0.05 0.06 0.05 0.05 0.05 0.04 0.03
0.02 0.02 0.01 0.01 0.01 0.01 0.01 0.00 0.00 0.01 0.01 0.01 0.01 0.01 0.02 0.05 0.04 0.04 0.04 0.03 0.04 0.03 0.02 0.02 0.01 0.01 0.01 0.01 0.01 0.01 0.01 0.01 0.02 0.02 0.02 0.03 0.03 0.03 0.03 0.03 0.04 0.04 0.04 0.03 0.03 0.03 0.02 0.03 0.03
0.01 0.02 0.02 0.01 0.01 0.01 0.01 0.01 0.01 0.00 0.00 0.01 0.01 0.01 0.01 0.04 0.04 0.03 0.04 0.02 0.02 0.02 0.05 0.03 0.01 0.01 0.01 0.01 0.01 0.02 0.02 0.02 0.02 0.02 0.03 0.04 0.03 0.02 0.02 0.02 0.02 0.02 0.02 0.02 0.03 0.03 0.03 0.03 0.03
0.01 0.02 0.02 0.01 0.01 0.02 0.01 0.01 0.00 0.00 0.00 0.00 0.01 0.01 0.01 0.02 0.02 0.02 0.02 0.01 0.00 0.01 0.02 0.01 0.01 0.01 0.01 0.01 0.01 0.02 0.03 0.03 0.02 0.03 0.06 0.04 0.02 0.02 0.02 0.02 0.03 0.02 0.03 0.03 0.04 0.04 0.04 0.04 0.04
0.01 0.01 0.02 0.02 0.01 0.02 0.03 0.01 0.01 0.00 0.00 0.00 0.00 0.01 0.01 0.01 0.01 0.01 0.01 0.00 0.01 0.01 0.02 0.02 0.01 0.01 0.01 0.03 0.02 0.02 0.03 0.03 0.03 0.04 0.05 0.04 0.03 0.03 0.02 0.02 0.03 0.03 0.03 0.03 0.04 0.04 0.04 0.04 0.03
0.01 0.01 0.01 0.02 0.02 0.02 0.02 0.02 0.01 0.01 0.01 0.01 0.00 0.00 0.00 0.01 0.01 0.00 0.00 0.00 0.00 0.00 0.01 0.02 0.01 0.01 0.01 0.02 0.03 0.02 0.03 0.04 0.03 0.04 0.05 0.05 0.05 0.04 0.02 0.02 0.02 0.03 0.03 0.03 0.04 0.04 0.05 0.03 0.02
0.01 0.01 0.02 0.02 0.02 0.02 0.03 0.05 0.03 0.01 0.01 0.01 0.00 0.00 0.00 0.01 0.01 0.00 0.00 0.00 0.00 0.00 0.00 0.01 0.00 0.01 0.02 0.02 0.02 0.02 0.04 0.06 0.05 0.06 0.07 0.07 0.06 0.04 0.02 0.02 0.02 0.03 0.02 0.05 0.04 0.04 0.03 0.03 0.02
0.01 0.02 0.02 0.02 0.02 0.02 0.01 0.02 0.03 0.02 0.01 0.01 0.00 0.00 0.00 0.01 0.01 0.01 0.01 0.00 0.00 0.00 0.00 0.00 0.00 0.01 0.01 0.02 0.02 0.01 0.05 0.07 0.04 0.05 0.06 0.05 0.05 0.04 0.02 0.02 0.03 0.03 0.02 0.03 0.03 0.04 0.05 0.05 0.04
0.01 0.01 0.01 0.02 0.02 0.02 0.02 0.03 0.03 0.04 0.02 0.01 0.01 0.00 0.00 0.00 0.01 0.02 0.01 0.01 0.01 0.00 0.00 0.01 0.01 0.01 0.02 0.01 0.02 0.01 0.06 0.07 0.05 0.05 0.05 0.03 0.03 0.03 0.03 0.02 0.03 0.03 0.03 0.04 0.04 0.04 0.03 0.04 0.05
0.00 0.01 0.01 0.02 0.03 0.02 0.03 0.03 0.04 0.05 0.03 0.02 0.02 0.02 0.01 0.00 0.00 0.01 0.01 0.01 0.00 0.00 0.01 0.01 0.02 0.02 0.01 0.01 0.03 0.02 0.08 0.07 0.06 0.06 0.05 0.04 0.03 0.02 0.03 0.03 0.03 0.02 0.02 0.03 0.04 0.05 0.03 0.04 0.05
0.00 0.00 0.01 0.01 0.02 0.02 0.02 0.02 0.03 0.04 0.04 0.03 0.03 0.04 0.03 0.01 0.01 0.01 0.01 0.00 0.00 0.00 0.00 0.01 0.01 0.01 0.01 0.01 0.03 0.04 0.06 0.05 0.06 0.07 0.08 0.06 0.04 0.02 0.03 0.03 0.02 0.02 0.02 0.02 0.02 0.03 0.02 0.02 0.04
0.00 0.00 0.01 0.01 0.01 0.02 0.03 0.03 0.03 0.03 0.03 0.04 0.07 0.09 0.05 0.02 0.01 0.01 0.01 0.01 0.01 0.01 0.01 0.01 0.00 0.00 0.01 0.01 0.02 0.03 0.05 0.03 0.04 0.05 0.08 0.05 0.04 0.04 0.03 0.03 0.02 0.03 0.02 0.02 0.02 0.02 0.02 0.02 0.04
0.01 0.01 0.01 0.00 0.01 0.02 0.02 0.04 0.03 0.04 0.03 0.04 0.07 0.07 0.04 0.02 0.01 0.02 0.03 0.02 0.01 0.01 0.01 0.01 0.00 0.00 0.01 0.01 0.01 0.01 0.02 0.02 0.03 0.04 0.06 0.05 0.03 0.03 0.04 0.03 0.03 0.03 0.03 0.03 0.03 0.03 0.04 0.03 0.03
0.00 0.00 0.00 0.00 0.01 0.02 0.03 0.03 0.02 0.02 0.03 0.04 0.06 0.05 0.03 0.02 0.01 0.02 0.03 0.02 0.01 0.00 0.00 0.00 0.01 0.01 0.00 0.01 0.01 0.01 0.01 0.02 0.03 0.04 0.04 0.05 0.06 0.07 0.04 0.04 0.04 0.04 0.03 0.03 0.03 0.04 0.06 0.05 0.04
0.00 0.00 0.00 0.00 0.01 0.03 0.05 0.04 0.01 0.02 0.03 0.05 0.06 0.05 0.04 0.02 0.02 0.01 0.01 0.01 0.01 0.00 0.00 0.00 0.00 0.00 0.00 0.01 0.01 0.02 0.02 0.02 0.02 0.03 0.04 0.05 0.06 0.06 0.06 0.05 0.06 0.05 0.04 0.05 0.04 0.04 0.05 0.07 0.08
0.00 0.00 0.01 0.02 0.02 0.03 0.04 0.02 0.01 0.03 0.04 0.03 0.05 0.05 0.04 0.03 0.03 0.02 0.02 0.01 0.01 0.01 0.01 0.00 0.01 0.01 0.01 0.01 0.02 0.02 0.03 0.02 0.03 0.03 0.04 0.05 0.06 0.07 0.06 0.07 0.10 0.12 0.10 0.06 0.04 0.04 0.03 0.04 0.06
0.00 0.00 0.01 0.02 0.03 0.03 0.02 0.01 0.01 0.02 0.03 0.02 0.03 0.04 0.08 0.06 0.02 0.01 0.02 0.03 0.02 0.02 0.02 0.02 0.02 0.02 0.03 0.03 0.02 0.03 0.03 0.03 0.03 0.02 0.03 0.04 0.05 0.06 0.09 0.10 0.12 0.15 0.12 0.08 0.05 0.05 0.04 0.04 0.04
0.00 0.01 0.01 0.01 0.01 0.01 0.01 0.01 0.02 0.02 0.02 0.02 0.02 0.03 0.13 0.10 0.02 0.02 0.03 0.03 0.03 0.03 0.03 0.04 0.04 0.04 0.04 0.04 0.04 0.05 0.05 0.03 0.03 0.02 0.02 0.03 0.04 0.05 0.08 0.13 0.11 0.11 0.11 0.08 0.07 0.08 0.08 0.07 0.07
0.00 0.00 0.01 0.02 0.01 0.01 0.01 0.01 0.01 0.02 0.02 0.02 0.02 0.02 0.05 0.06 0.03 0.02 0.02 0.03 0.03 0.02 0.02 0.04 0.05 0.06 0.06 0.06 0.04 0.04 0.03 0.03 0.04 0.05 0.05 0.04 0.03 0.03 0.07 0.18 0.15 0.11 0.11 0.10 0.10 0.11 0.12 0.11 0.08
0.00 0.01 0.01 0.02 0.02 0.01 0.02 0.01 0.01 0.01 0.02 0.02 0.03 0.02 0.02 0.02 0.01 0.02 0.02 0.02 0.02 0.02 0.02 0.03 0.03 0.04 0.04 0.03 0.02 0.01 0.01 0.01 0.01 0.03 0.04 0.04 0.04 0.04 0.05 0.09 0.11 0.08 0.09 0.12 0.14 0.12 0.11 0.11 0.09
0.00 0.01 0.00 0.01 0.01 0.01 0.02 0.03 0.02 0.02 0.02 0.03 0.03 0.03 0.03 0.02 0.01 0.04 0.05 0.02 0.02 0.01 0.01 0.01 0.01 0.01 0.01 0.01 0.01 0.01 0.01 0.01 0.01 0.02 0.01 0.01 0.02 0.03 0.03 0.03 0.04 0.04 0.05 0.07 0.12 0.12 0.10 0.10 0.10
MSLP
1004.70 1005.77 1006.93 1008.00 1008.84 1009.33 1009.43 1009.19 1008.73 1008.21 1007.81 1007.64 1007.77 1008.17 1008.74 1009.33 1009.81 1010.05 1010.02 1009.76 1009.33 1008.88 1008.51 1008.31 1008.33 1008.54 1008.87 1009.23 1009.57 1009.82 1010.00 1010.12 1010.25 1010.44 1010.71 1011.07 1011.51 1011.97 1012.41 1012.78 1013.08 1013.30 1013.48 1013.66 1013.85 1014.08 1014.35 1014.65 1014.96
1005.05 1006.24 1007.44 1008.47 1009.19 1009.51 1009.42 1009.00 1008.39 1007.77 1007.31 1007.13 1007.27 1007.71 1008.32 1008.96 1009.49 1009.81 1009.86 1009.69 1009.38 1009.03 1008.77 1008.67 1008.76 1009.01 1009.37 1009.75 1010.09 1010.35 1010.54 1010.68 1010.81 1011.00 1011.26 1011.59 1011.98 1012.39 1012.77 1013.10 1013.36 1013.58 1013.76 1013.94 1014.15 1014.39 1014.66 1014.95 1015.24
1005.53 1006.80 1007.99 1008.93 1009.49 1009.63 1009.36 1008.78 1008.05 1007.37 1006.89 1006.72 1006.89 1007.35 1007.98 1008.64 1009.19 1009.53 1009.64 1009.54 1009.32 1009.08 1008.92 1008.91 1009.06 1009.36 1009.74 1010.14 1010.49 1010.77 1010.97 1011.13 1011.29 1011.48 1011.74 1012.04 1012.39 1012.74 1013.07 1013.36 1013.61 1013.82 1014.02 1014.23 1014.47 1014.73 1015.02 1015.30 1015.57
1006.08 1007.36 1008.48 1009.28 1009.68 1009.64 1009.21 1008.53 1007.75 1007.06 1006.62 1006.49 1006.70 1007.18 1007.81 1008.46 1009.00 1009.34 1009.47 1009.42 1009.27 1009.11 1009.04 1009.10 1009.31 1009.64 1010.03 1010.43 1010.78 1011.06 1011.29 1011.47 1011.66 1011.87 1012.13 1012.42 1012.74 1013.05 1013.34 1013.60 1013.83 1014.05 1014.28 1014.53 1014.81 1015.10 1015.40 1015.69 1015.94
1006.59 1007.81 1008.80 1009.44 1009.66 1009.47 1008.95 1008.23 1007.47 1006.86 1006.50 1006.47 1006.74 1007.25 1007.88 1008.49 1008.99 1009.31 1009.44 1009.42 1009.33 1009.24 1009.24 1009.36 1009.60 1009.93 1010.30 1010.67 1011.00 1011.27 1011.51 1011.71 1011.93 1012.17 1012.45 1012.74 1013.05 1013.34 1013.60 1013.84 1014.07 1014.30 1014.55 1014.83 1015.14 1015.46 1015.77 1016.05 1016.28
1006.95 1008.03 1008.85 1009.31 1009.37 1009.07 1008.52 1007.84 1007.19 1006.72 1006.52 1006.62 1006.98 1007.53 1008.16 1008.74 1009.19 1009.48 1009.60 1009.61 1009.56 1009.54 1009.59 1009.75 1009.99 1010.30 1010.62 1010.94 1011.21 1011.45 1011.67 1011.90 1012.14 1012.42 1012.73 1013.05 1013.36 1013.64 1013.88 1014.10 1014.32 1014.54 1014.81 1015.10 1015.43 1015.76 1016.08 1016.34 1016.55
1007.08 1007.97 1008.57 1008.84 1008.77 1008.41 1007.89 1007.32 1006.85 1006.59 1006.60 1006.86 1007.34 1007.94 1008.57 1009.12 1009.54 1009.79 1009.92 1009.95 1009.97 1010.01 1010.11 1010.29 1010.53 1010.79 1011.04 1011.27 1011.48 1011.66 1011.86 1012.08 1012.35 1012.67 1013.02 1013.37 1013.69 1013.97 1014.20 1014.40 1014.59 1014.80 1015.05 1015.33 1015.65 1015.97 1016.27 1016.51 1016.69
1006.94 1007.61 1007.99 1008.07 1007.89 1007.52 1007.08 1006.68 1006.43 1006.42 1006.65 1007.09 1007.69 1008.35 1008.98 1009.50 1009.89 1010.14 1010.28 1010.36 1010.45 1010.56 1010.73 1010.94 1011.16 1011.38 1011.56 1011.70 1011.82 1011.94 1012.09 1012.31 1012.60 1012.95 1013.34 1013.72 1014.06 1014.35 1014.57 1014.74 1014.89 1015.06 1015.27 1015.51 1015.79 1016.08 1016.34 1016.56 1016.71
1006.59 1007.02 1007.18 1007.10 1006.84 1006.48 1006.15 1005.94 1005.93 1006.15 1006.60 1007.21 1007.92 1008.62 1009.25 1009.75 1010.12 1010.37 1010.55 1010.70 1010.87 1011.08 1011.33 1011.58 1011.82 1012.00 1012.12 1012.19 1012.23 1012.29 1012.40 1012.60 1012.90 1013.28 1013.69 1014.11 1014.47 1014.76 1014.96 1015.11 1015.22 1015.33 1015.47 1015.66 1015.88 1016.12 1016.33 1016.51 1016.64
1006.12 1006.32 1006.29 1006.07 1005.74 1005.42 1005.20 1005.17 1005.36 1005.79 1006.42 1007.16 1007.93 1008.65 1009.26 1009.75 1010.11 1010.37 1010.61 1010.84 1011.12 1011.44 1011.78 1012.11 1012.38 1012.56 1012.66 1012.68 1012.66 1012.67 1012.75 1012.94 1013.24 1013.63 1014.07 1014.50 1014.88 1015.17 1015.36 1015.47 1015.54 1015.60 1015.68 1015.80 1015.95 1016.13 1016.30 1016.44 1016.54
1005.66 1005.67 1005.47 1005.13 1004.77 1004.47 1004.35 1004.45 1004.80 1005.37 1006.10 1006.91 1007.70 1008.41 1008.99 1009.44 1009.79 1010.08 1010.37 1010.70 1011.09 1011.53 1011.99 1012.41 1012.75 1012.97 1013.08 1013.09 1013.07 1013.06 1013.12 1013.29 1013.59 1013.98 1014.42 1014.86 1015.24 1015.53 1015.72 1015.82 1015.85 1015.87 1015.90 1015.96 1016.05 1016.17 1016.29 1016.39 1016.47
1005.35 1005.20 1004.86 1004.44 1004.04 1003.77 1003.70 1003.88 1004.31 1004.95 1005.71 1006.51 1007.27 1007.93 1008.46 1008.87 1009.21 1009.52 1009.87 1010.28 1010.78 1011.33 1011.90 1012.43 1012.86 1013.16 1013.33 1013.38 1013.38 1013.39 1013.45 1013.62 1013.90 1014.28 1014.71 1015.14 1015.52 1015.81 1016.00 1016.10 1016.13 1016.13 1016.13 1016.15 1016.20 1016.27 1016.35 1016.42 1016.47
1005.28 1005.01 1004.58 1004.08 1003.65 1003.37 1003.32 1003.52 1003.96 1004.58 1005.30 1006.04 1006.72 1007.30 1007.76 1008.13 1008.45 1008.78 1009.18 1009.66 1010.24 1010.89 1011.56 1012.19 1012.72 1013.12 1013.38 1013.52 1013.58 1013.63 1013.72 1013.88 1014.15 1014.49 1014.89 1015.30 1015.66 1015.95 1016.16 1016.28 1016.33 1016.34 1016.35 1016.36 1016.40 1016.44 1016.49 1016.53 1016.56
1005.48 1005.13 1004.63 1004.09 1003.62 1003.33 1003.25 1003.42 1003.80 1004.34 1004.96 1005.58 1006.16 1006.64 1007.04 1007.36 1007.67 1008.01 1008.43 1008.96 1009.59 1010.29 1011.03 1011.75 1012.37 1012.88 1013.24 1013.49 1013.65 1013.76 1013.89 1014.06 1014.30 1014.61 1014.96 1015.32 1015.66 1015.95 1016.17 1016.32 1016.42 1016.48 1016.53 1016.57 1016.61 1016.65 1016.69 1016.71 1016.72
1005.91 1005.50 1004.95 1004.39 1003.90 1003.58 1003.46 1003.55 1003.83 1004.24 1004.72 1005.21 1005.66 1006.06 1006.39 1006.68 1006.98 1007.33 1007.76 1008.30 1008.95 1009.67 1010.44 1011.20 1011.89 1012.49 1012.97 1013.33 1013.60 1013.80 1013.97 1014.15 1014.37 1014.62 1014.91 1015.21 1015.51 1015.79 1016.03 1016.23 1016.39 1016.52 1016.62 1016.71 1016.78 1016.84 1016.88 1016.90 1016.89
1006.44 1006.00 1005.44 1004.88 1004.39 1004.05 1003.88 1003.88 1004.03 1004.28 1004.60 1004.94 1005.27 1005.58 1005.86 1006.14 1006.45 1006.81 1007.25 1007.78 1008.40 1009.10 1009.85 1010.62 1011.35 1012.02 1012.60 1013.07 1013.45 1013.74 1013.97 1014.16 1014.35 1014.55 1014.77 1015.00 1015.26 1015.52 1015.77 1016.02 1016.24 1016.44 1016.62 1016.76 1016.88 1016.97 1017.02 1017.04 1017.03
1006.95 1006.51 1005.98 1005.45 1004.99 1004.65 1004.43 1004.33 1004.33 1004.42 1004.57 1004.75 1004.96 1005.19 1005.44 1005.72 1006.05 1006.42 1006.87 1007.38 1007.96 1008.61 1009.31 1010.04 1010.78 1011.49 1012.14 1012.72 1013.20 1013.59 1013.88 1014.10 1014.27 1014.42 1014.56 1014.73 1014.93 1015.17 1015.43 1015.71 1015.99 1016.26 1016.50 1016.70 1016.86 1016.98 1017.06 1017.10 1017.10
1007.31 1006.89 1006.44 1006.00 1005.61 1005.30 1005.04 1004.85 1004.71 1004.61 1004.56 1004.57 1004.65 1004.80 1005.02 1005.32 1005.68 1006.09 1006.54 1007.04 1007.57 1008.16 1008.79 1009.47 1010.18 1010.91 1011.62 1012.28 1012.86 1013.34 1013.70 1013.96 1014.13 1014.24 1014.33 1014.43 1014.58 1014.79 1015.05 1015.35 1015.67 1015.99 1016.29 1016.54 1016.74 1016.89 1017.00 1017.06 1017.09
1007.42 1007.10 1006.78 1006.49 1006.22 1005.96 1005.70 1005.41 1005.11 1004.80 1004.53 1004.34 1004.26 1004.31 1004.50 1004.80 1005.20 1005.65 1006.14 1006.63 1007.14 1007.66 1008.23 1008.85 1009.53 1010.25 1011.00 1011.74 1012.41 1012.98 1013.42 1013.72 1013.91 1014.01 1014.07 1014.13 1014.24 1014.42 1014.67 1014.98 1015.33 1015.68 1016.01 1016.30 1016.53 1016.71 1016.85 1016.94 1017.01
1007.29 1007.13 1007.01 1006.92 1006.82 1006.65 1006.39 1006.01 1005.52 1004.97 1004.45 1004.01 1003.73 1003.65 1003.77 1004.07 1004.50 1005.01 1005.54 1006.05 1006.55 1007.05 1007.56 1008.13 1008.78 1009.50 1010.28 1011.07 1011.82 1012.48 1013.01 1013.39 1013.61 1013.73 1013.78 1013.83 1013.91 1014.07 1014.31 1014.63 1014.99 1015.36 1015.71 1016.02 1016.27 1016.47 1016.63 1016.76 1016.88
1006.98 1007.04 1007.19 1007.35 1007.45 1007.40 1007.14 1006.65 1005.96 1005.14 1004.31 1003.58 1003.05 1002.78 1002.80 1003.06 1003.52 1004.08 1004.67 1005.24 1005.77 1006.27 1006.76 1007.31 1007.93 1008.65 1009.45 1010.29 1011.11 1011.86 1012.47 1012.93 1013.22 1013.38 1013.45 1013.51 1013.60 1013.75 1013.99 1014.31 1014.67 1015.05 1015.41 1015.72 1015.98 1016.19 1016.37 1016.54 1016.71
1006.63 1006.97 1007.42 1007.87 1008.18 1008.25 1007.99 1007.37 1006.45 1005.33 1004.15 1003.09 1002.27 1001.78 1001.65 1001.84 1002.30 1002.91 1003.57 1004.21 1004.80 1005.33 1005.85 1006.39 1007.01 1007.73 1008.55 1009.42 1010.30 1011.12 1011.82 1012.35 1012.71 1012.93 1013.06 1013.15 1013.26 1013.42 1013.67 1013.99 1014.36 1014.74 1015.09 1015.41 1015.67 1015.89 1016.09 1016.29 1016.50
1006.40 1007.04 1007.79 1008.52 1009.04 1009.21 1008.93 1008.18 1007.02 1005.58 1004.05 1002.64 1001.50 1000.76 1000.45 1000.55 1000.99 1001.63 1002.36 1003.08 1003.75 1004.34 1004.89 1005.46 1006.08 1006.81 1007.63 1008.52 1009.44 1010.31 1011.07 1011.67 1012.11 1012.40 1012.58 1012.72 1012.86 1013.05 1013.31 1013.64 1014.01 1014.39 1014.76 1015.07 1015.34 1015.57 1015.77 1015.99 1016.23
1006.42 1007.33 1008.36 1009.32 1010.01 1010.25 1009.94 1009.05 1007.66 1005.92 1004.07 1002.32 1000.88 999.89 999.40 999.39 999.78 1000.43 1001.21 1002.01 1002.74 1003.40 1004.00 1004.59 1005.22 1005.94 1006.76 1007.65 1008.57 1009.46 1010.26 1010.92 1011.42 1011.77 1012.02 1012.20 1012.39 1012.61 1012.89 1013.23 1013.61 1014.00 1014.36 1014.68 1014.95 1015.19 1015.41 1015.63 1015.89
1006.75 1007.86 1009.09 1010.21 1011.01 1011.28 1010.92 1009.90 1008.32 1006.35 1004.22 1002.21 1000.52 999.31 998.65 998.53 998.86 999.50 1000.30 1001.14 1001.93 1002.63 1003.27 1003.87 1004.50 1005.19 1005.98 1006.84 1007.74 1008.63 1009.44 1010.12 1010.66 1011.07 1011.36 1011.60 1011.82 1012.08 1012.38 1012.74 1013.12 1013.51 1013.89 1014.21 1014.50 1014.74 1014.97 1015.20 1015.47
1007.36 1008.59 1009.91 1011.09 1011.91 1012.17 1011.75 1010.64 1008.93 1006.80 1004.51 1002.33 1000.48 999.12 998.33 998.11 998.37 998.97 999.75 1000.59 1001.39 1002.10 1002.74 1003.33 1003.92 1004.58 1005.31 1006.12 1006.98 1007.83 1008.62 1009.31 1009.87 1010.31 1010.64 1010.92 1011.18 1011.46 1011.79 1012.15 1012.55 1012.95 1013.33 1013.67 1013.96 1014.22 1014.45 1014.69 1014.95
1008.18 1009.38 1010.67 1011.81 1012.57 1012.76 1012.28 1011.12 1009.37 1007.20 1004.88 1002.65 1000.75 999.33 998.47 998.17 998.36 998.88 999.61 1000.39 1001.15 1001.82 1002.41 1002.95 1003.50 1004.08 1004.74 1005.48 1006.27 1007.06 1007.82 1008.49 1009.06 1009.52 1009.88 1010.20 1010.49 1010.80 1011.14 1011.51 1011.92 1012.32 1012.71 1013.06 1013.37 1013.63 1013.87 1014.11 1014.37
1009.04 1010.11 1011.24 1012.22 1012.85 1012.95 1012.42 1011.25 1009.55 1007.46 1005.23 1003.09 1001.26 999.87 999.01 998.67 998.77 999.21 999.82 1000.50 1001.15 1001.74 1002.24 1002.70 1003.15 1003.66 1004.23 1004.88 1005.59 1006.32 1007.03 1007.68 1008.24 1008.71 1009.11 1009.45 1009.78 1010.11 1010.47 1010.85 1011.26 1011.67 1012.06 1012.42 1012.73 1013.01 1013.26 1013.50 1013.74
1009.78 1010.61 1011.49 1012.23 1012.67 1012.64 1012.07 1010.96 1009.38 1007.49 1005.47 1003.54 1001.89 1000.62 999.81 999.46 999.49 999.81 1000.28 1000.81 1001.31 1001.76 1002.14 1002.48 1002.84 1003.24 1003.72 1004.28 1004.90 1005.57 1006.23 1006.85 1007.41 1007.90 1008.33 1008.71 1009.07 1009.44 1009.82 1010.22 1010.62 1011.03 1011.42 1011.78 1012.09 1012.38 1012.63 1012.87 1013.12
1010.28 1010.81 1011.38 1011.83 1012.04 1011.88 1011.29 1010.27 1008.89 1007.25 1005.54 1003.91 1002.50 1001.42 1000.71 1000.37 1000.34 1000.53 1000.84 1001.18 1001.51 1001.79 1002.02 1002.24 1002.48 1002.78 1003.17 1003.64 1004.19 1004.79 1005.41 1006.01 1006.57 1007.09 1007.55 1007.98 1008.39 1008.80 1009.21 1009.62 1010.03 1010.44 1010.82 1011.16 1011.47 1011.75 1012.01 1012.25 1012.50
Thickness
5825 5823 5820 5809 5789 5772 5770 5783 5793 5795 5796 5803 5806 5800 5789 5781 5772 5762 5781 5787 5785 5783 5782 5781 5780 5779 5778 5778 5777 5777 5776 5776 5776 5775 5775 5775 5774 5775 5774 5774 5773 5772 5772 5771 5770 5768 5766 5765 5763
5828 5825 5814 5799 5776 5758 5769 5789 5793 5798 5804 5809 5806 5800 5791 5784 5789 5784 5784 5786 5786 5784 5782 5781 5780 5779 5778 5778 5777 5776 5776 5775 5775 5775 5774 5774 5774 5774 5774 5773 5772 5771 5771 5770 5768 5767 5765 5764 5762
5832 5827 5806 5789 5775 5767 5775 5794 5799 5807 5814 5811 5802 5800 5792 5786 5790 5787 5788 5788 5786 5784 5782 5781 5780 5779 5778 5777 5777 5776 5776 5775 5775 5774 5773 5773 5773 5772 5772 5772 5771 5770 5769 5768 5767 5766 5765 5763 5761
5830 5817 5803 5784 5778 5792 5798 5803 5810 5807 5809 5811 5804 5793 5795 5801 5798 5794 5792 5789 5785 5783 5782 5781 5780 5778 5778 5777 5777 5776 5775 5775 5774 5773 5773 5772 5772 5771 5771 5770 5770 5769 5768 5767 5766 5765 5764 5762 5761
5828 5808 5788 5778 5788 5804 5814 5818 5817 5808 5804 5804 5803 5789 5788 5801 5803 5797 5793 5790 5786 5783 5782 5781 5780 5778 5777 5776 5776 5775 5775 5774 5773 5773 5772 5771 5771 5770 5770 5769 5769 5768 5767 5766 5765 5764 5763 5762 5760
5814 5802 5780 5774 5792 5809 5818 5823 5819 5808 5803 5804 5800 5790 5786 5800 5798 5795 5794 5790 5788 5785 5782 5781 5780 5778 5777 5776 5775 5775 5774 5773 5772 5772 5771 5770 5770 5770 5770 5769 5768 5767 5766 5765 5764 5763 5762 5761 5760
5809 5795 5784 5788 5795 5805 5817 5827 5820 5810 5805 5806 5806 5789 5787 5795 5799 5798 5795 5791 5788 5786 5783 5781 5780 5779 5777 5776 5775 5774 5773 5772 5771 5771 5770 5769 5769 5769 5770 5769 5768 5766 5765 5764 5764 5763 5762 5761 5760
5822 5801 5791 5794 5799 5806 5825 5831 5828 5819 5812 5818 5814 5793 5786 5796 5802 5798 5793 5790 5787 5785 5783 5781 5780 5779 5778 5776 5775 5774 5773 5772 5771 5770 5769 5768 5768 5768 5768 5767 5766 5765 5764 5763 5763 5762 5761 5760 5760
5830 5796 5788 5800 5806 5813 5829 5828 5828 5833 5823 5819 5819 5811 5807 5807 5803 5795 5788 5785 5783 5783 5782 5782 5780 5779 5778 5777 5775 5773 5772 5771 5770 5769 5768 5767 5766 5766 5766 5765 5765 5764 5763 5763 5762 5761 5761 5760 5759
5820 5793 5805 5826 5829 5827 5832 5830 5828 5821 5813 5810 5811 5812 5812 5807 5800 5793 5787 5783 5782 5781 5782 5782 5781 5780 5778 5777 5775 5774 5772 5771 5770 5769 5767 5766 5766 5765 5764 5764 5764 5764 5763 5762 5761 5760 5760 5759 5759
5826 5815 5829 5839 5844 5842 5835 5833 5835 5819 5805 5810 5809 5808 5809 5805 5799 5794 5791 5789 5787 5786 5785 5784 5783 5781 5779 5778 5776 5774 5772 5771 5770 5769 5768 5766 5765 5764 5763 5763 5763 5762 5762 5761 5761 5760 5759 5759 5758
5833 5837 5844 5844 5850 5845 5838 5835 5829 5825 5821 5827 5825 5820 5813 5806 5801 5798 5794 5793 5791 5789 5787 5787 5785 5783 5781 5779 5777 5775 5773 5771 5770 5769 5768 5766 5765 5763 5763 5762 5762 5761 5761 5760 5760 5759 5759 5758 5758
5836 5839 5847 5850 5849 5847 5844 5835 5830 5827 5833 5832 5828 5822 5815 5809 5806 5804 5802 5799 5796 5792 5790 5789 5787 5784 5782 5780 5778 5776 5774 5772 5771 5770 5769 5767 5765 5763 5762 5761 5761 5760 5760 5759 5759 5759 5758 5758 5758
5842 5843 5845 5847 5846 5846 5837 5832 5830 5825 5834 5829 5824 5819 5817 5814 5811 5806 5803 5800 5797 5796 5794 5793 5790 5787 5785 5781 5779 5777 5775 5774 5772 5771 5770 5768 5766 5764 5763 5762 5761 5760 5760 5759 5759 5758 5758 5758 5758
5849 5835 5834 5840 5842 5841 5836 5818 5823 5830 5832 5825 5822 5821 5819 5817 5815 5811 5809 5806 5803 5800 5798 5795 5792 5789 5786 5783 5781 5779 5777 5775 5773 5772 5770 5769 5767 5765 5764 5762 5761 5761 5760 5760 5759 5758 5757 5757 5756
5836 5820 5808 5829 5839 5839 5825 5799 5821 5834 5830 5822 5822 5822 5820 5818 5818 5817 5815 5811 5808 5804 5800 5797 5795 5791 5788 5785 5783 5780 5778 5776 5774 5773 5771 5769 5768 5766 5765 5763 5762 5761 5761 5760 5759 5757 5755 5754 5754
5813 5800 5804 5820 5838 5836 5822 5807 5823 5833 5829 5822 5823 5823 5820 5817 5817 5818 5818 5815 5811 5808 5803 5799 5796 5792 5789 5787 5784 5782 5779 5777 5775 5773 5772 5770 5769 5767 5765 5764 5763 5762 5761 5759 5759 5757 5755 5753 5752
5797 5802 5807 5813 5831 5832 5819 5814 5823 5830 5828 5824 5823 5822 5819 5818 5818 5820 5819 5817 5814 5810 5806 5802 5798 5794 5790 5787 5784 5781 5779 5777 5776 5774 5773 5771 5769 5768 5766 5764 5763 5762 5760 5758 5757 5755 5754 5753 5752
5816 5811 5807 5818 5838 5829 5819 5816 5821 5828 5826 5823 5820 5820 5819 5820 5822 5822 5820 5818 5814 5809 5805 5802 5798 5795 5791 5786 5782 5779 5776 5776 5775 5775 5773 5772 5770 5768 5766 5764 5762 5761 5759 5758 5756 5754 5752 5750 5750
5818 5809 5809 5819 5834 5829 5817 5816 5825 5829 5829 5830 5826 5822 5821 5819 5818 5820 5819 5817 5814 5810 5807 5803 5800 5797 5793 5790 5787 5783 5780 5778 5777 5775 5774 5772 5770 5768 5766 5764 5762 5761 5759 5757 5755 5754 5750 5748 5748
5815 5811 5811 5812 5823 5826 5815 5802 5812 5824 5830 5830 5830 5829 5826 5824 5820 5820 5820 5818 5815 5811 5809 5807 5802 5799 5795 5792 5788 5784 5780 5777 5774 5773 5772 5772 5771 5769 5767 5765 5763 5761 5759 5756 5755 5753 5750 5746 5746
5804 5826 5825 5820 5804 5792 5803 5772 5797 5813 5817 5822 5825 5827 5828 5828 5826 5823 5821 5819 5817 5815 5812 5809 5804 5800 5797 5793 5788 5782 5777 5773 5773 5773 5773 5772 5770 5769 5767 5765 5763 5760 5758 5756 5755 5754 5751 5748 5744
5818 5834 5826 5819 5803 5788 5793 5776 5786 5807 5805 5816 5824 5829 5831 5832 5829 5826 5825 5822 5820 5818 5813 5810 5805 5801 5798 5794 5789 5784 5779 5777 5775 5774 5771 5769 5769 5768 5766 5764 5762 5759 5758 5756 5754 5753 5751 5749 5746
5832 5822 5813 5800 5784 5766 5783 5777 5777 5799 5810 5819 5826 5831 5832 5832 5831 5829 5828 5824 5820 5817 5813 5810 5804 5801 5798 5794 5790 5785 5781 5777 5774 5771 5769 5768 5766 5765 5765 5763 5761 5759 5757 5755 5754 5752 5750 5748 5746
5817 5786 5760 5756 5747 5755 5782 5778 5783 5816 5828 5830 5829 5831 5833 5832 5829 5827 5824 5821 5818 5815 5812 5809 5804 5800 5797 5794 5791 5787 5783 5779 5775 5772 5769 5767 5764 5763 5762 5762 5759 5757 5756 5755 5753 5751 5748 5747 5745
5803 5785 5753 5741 5739 5753 5774 5772 5795 5827 5834 5838 5837 5837 5834 5831 5830 5828 5827 5824 5820 5817 5813 5809 5804 5800 5797 5793 5790 5788 5784 5780 5777 5774 5771 5768 5766 5764 5762 5760 5758 5756 5755 5754 5751 5749 5747 5745 5743
5797 5784 5783 5759 5754 5748 5756 5777 5801 5822 5825 5828 5830 5831 5829 5830 5830 5828 5826 5824 5821 5817 5814 5810 5805 5801 5798 5794 5790 5787 5783 5780 5777 5774 5771 5768 5766 5764 5761 5759 5757 5755 5753 5751 5749 5746 5745 5743 5741
5806 5794 5768 5752 5737 5732 5749 5762 5774 5798 5807 5816 5821 5822 5825 5828 5828 5826 5824 5821 5818 5816 5813 5810 5806 5801 5798 5793 5790 5787 5783 5780 5776 5773 5769 5766 5763 5761 5759 5757 5754 5752 5750 5749 5747 5744 5742 5740 5738
5790 5783 5765 5748 5745 5732 5731 5754 5800 5801 5808 5810 5816 5820 5823 5824 5825 5824 5821 5820 5816 5813 5810 5806 5803 5798 5794 5791 5788 5785 5781 5778 5775 5771 5768 5765 5762 5759 5756 5754 5752 5749 5747 5746 5744 5742 5740 5737 5736
5793 5782 5765 5745 5740 5738 5734 5755 5811 5810 5812 5812 5812 5816 5820 5820 5822 5821 5818 5815 5811 5808 5805 5802 5799 5795 5792 5789 5785 5782 5778 5775 5771 5768 5766 5763 5759 5756 5754 5751 5749 5747 5744 5742 5740 5738 5737 5735 5732